RH
72 66 79 66 46 49 47 53 63 53 43 51 59 64 49 37 36 35 59 69 73 77 70 65 68 70 74 78 82 83 85 85 79 78 71 66 59 53 50 48 60 78 99 97
59 71 55 40 42 48 54 64 65 57 42 38 42 45 40 38 35 40 70 70 74 78 73 66 66 72 78 82 83 86 87 82 79 79 73 68 62 56 50 51 58 65 96 100
64 53 40 41 50 55 55 61 62 71 55 44 43 50 39 30 32 53 65 65 70 77 78 74 69 72 79 84 84 90 92 92 86 73 70 67 62 56 51 50 59 67 86 95
58 42 43 50 55 51 64 52 60 66 72 73 44 87 63 42 57 58 62 71 73 78 78 75 72 72 78 82 87 91 94 92 83 78 73 70 67 64 59 57 55 62 66 88
58 48 49 56 51 45 60 54 60 67 77 69 63 73 64 58 60 54 59 62 70 71 72 73 72 71 76 87 93 96 99 98 96 78 72 67 69 66 60 58 62 53 66 72
56 42 41 50 43 44 47 62 76 66 72 84 69 70 71 73 60 55 55 63 65 68 69 70 71 75 78 87 94 99 100 96 91 84 71 67 69 69 66 62 64 61 63 68
59 53 41 39 51 52 56 73 97 77 94 94 62 70 67 56 56 55 57 61 63 66 71 73 77 82 79 84 90 98 98 100 92 88 78 66 67 68 68 65 66 74 71 77
82 69 43 42 44 55 57 63 92 99 99 92 50 72 61 53 52 49 50 54 57 64 70 73 73 75 73 74 82 98 99 100 95 88 87 77 66 70 73 70 65 71 75 76
78 61 36 37 37 49 63 85 62 75 78 95 72 51 49 52 55 52 49 51 57 62 66 69 68 64 65 68 86 100 100 100 100 99 90 84 77 70 71 70 68 72 72 72
59 76 48 46 39 44 54 55 86 87 97 94 73 54 68 62 58 56 50 50 56 58 63 66 65 59 57 62 71 89 99 100 100 100 100 94 79 77 73 72 71 71 70 70
48 63 58 39 55 67 66 80 71 83 90 94 99 80 53 55 55 58 53 49 52 57 61 65 62 52 55 58 64 74 88 100 100 100 100 100 95 88 84 79 79 80 77 76
49 65 87 61 43 38 41 47 66 92 88 92 90 82 43 55 55 54 56 51 48 52 56 62 64 57 55 59 61 66 72 98 100 100 100 100 100 83 83 77 79 80 83 77
52 74 86 40 51 47 49 50 59 88 91 94 93 82 48 54 53 53 59 56 53 53 54 63 67 68 66 63 64 65 66 75 98 100 100 100 100 100 100 87 92 81 79 81
56 81 74 41 43 55 63 51 56 69 99 85 88 73 56 51 59 57 55 56 54 53 57 60 68 72 66 65 66 67 67 68 77 98 99 100 100 100 100 100 97 100 90 89
64 88 80 77 68 65 66 60 55 78 66 73 44 63 46 43 40 38 34 55 53 54 56 59 63 70 70 68 66 67 70 69 71 76 97 100 99 99 100 99 100 100 100 100
61 74 91 88 62 63 62 55 52 48 54 58 50 50 35 35 44 44 48 52 55 58 58 59 57 63 70 68 66 68 71 73 72 74 79 94 95 97 100 99 100 98 100 100
68 86 90 72 59 77 54 53 55 51 50 46 61 42 42 40 39 41 42 47 54 58 59 63 62 70 67 64 64 67 71 72 74 76 77 82 84 86 94 97 97 100 98 100
71 74 85 89 78 46 30 38 40 43 35 46 46 46 42 36 34 37 42 49 53 57 59 65 68 67 64 62 62 65 71 76 78 80 81 81 80 83 81 78 80 83 94 98
67 80 88 91 91 47 32 39 40 41 23 36 38 35 35 36 36 40 38 46 51 54 61 64 59 63 63 63 60 63 71 76 81 84 84 83 80 80 78 78 75 75 74 79
74 73 90 93 79 39 23 18 30 25 22 19 36 33 32 39 40 40 37 41 50 53 53 61 60 61 63 64 61 63 73 77 83 83 82 84 82 78 78 76 74 74 74 77
91 86 96 92 85 56 39 28 33 16 17 22 34 32 35 41 36 30 42 43 48 52 56 57 61 62 62 64 63 65 73 75 79 79 77 75 82 81 79 76 76 76 78 81
82 91 94 84 84 61 40 43 19 17 17 20 22 24 32 37 34 45 53 48 56 61 63 60 64 64 62 66 66 68 74 68 75 77 74 74 78 77 74 70 72 72 71 74
47 46 66 55 54 32 43 26 31 33 27 21 20 26 32 38 36 40 54 59 61 64 64 60 63 65 63 66 67 72 68 70 75 77 75 73 72 71 70 72 71 70 70 73
35 36 43 30 30 29 30 36 36 33 36 36 38 35 32 38 40 42 47 55 65 66 67 63 69 72 69 65 69 64 70 70 71 77 75 75 73 74 74 71 71 72 73 75
35 35 34 32 24 25 24 21 20 21 31 38 40 40 38 41 44 46 48 52 57 60 64 64 71 72 70 63 67 65 69 72 71 73 74 76 75 76 77 76 75 76 79 74
39 33 36 38 29 28 32 26 26 28 29 30 35 36 42 45 40 45 43 50 52 58 59 68 69 68 68 63 63 65 68 72 70 73 76 77 78 78 78 81 87 85 81 75
Wind_Speed
4 2 5 8 2 5 4 4 6 5 10 5 9 10 11 11 9 9 2 5 7 7 8 19 20 23 25 25 23 29 25 28 33 29 28 30 31 33 31 39 37 37 39 42
5 4 9 5 6 7 6 7 6 8 7 6 6 10 13 12 9 6 6 5 6 7 11 17 24 23 22 24 28 28 27 26 24 29 28 29 27 31 32 33 37 38 36 41
3 6 6 5 6 7 5 5 4 6 8 6 6 8 10 15 14 7 4 3 4 6 9 12 18 23 23 24 24 26 29 28 21 28 29 29 30 29 31 34 34 36 37 38
5 3 4 6 5 3 4 2 3 7 5 4 4 5 6 2 7 5 3 5 6 8 8 8 13 22 23 24 23 26 28 26 23 24 28 28 25 23 26 28 32 32 35 37
7 3 3 3 1 2 6 5 4 3 4 4 5 1 7 5 3 2 0 3 7 6 7 11 12 20 24 23 23 25 24 23 22 19 28 31 27 26 25 28 26 37 33 34
8 3 3 4 4 4 8 5 5 1 1 3 7 6 5 4 5 2 1 6 6 7 7 8 15 20 25 26 22 21 21 20 17 17 25 31 29 26 25 26 30 32 34 34
6 4 2 2 4 4 1 2 3 1 1 5 3 3 9 5 6 6 6 6 6 6 6 8 10 16 23 28 29 24 19 20 17 14 22 29 32 33 30 30 30 28 32 31
1 7 3 3 3 2 3 1 2 3 2 4 2 5 6 6 8 7 6 5 4 5 6 7 7 11 18 23 25 26 23 22 19 19 20 26 32 31 31 30 32 32 32 31
3 5 2 2 1 4 3 1 2 3 3 2 4 4 4 4 5 5 5 2 4 5 6 6 7 10 17 21 24 24 24 23 20 19 21 26 26 31 30 32 34 31 29 33
3 5 4 3 1 3 3 4 2 2 3 4 5 5 5 7 7 6 3 3 5 4 6 6 6 11 17 21 22 25 25 22 23 22 13 21 24 28 31 34 34 34 35 34
2 3 6 1 4 5 1 3 2 2 3 4 3 6 5 8 7 7 5 5 5 5 4 5 6 11 14 20 21 23 25 23 25 25 13 7 13 16 15 27 32 33 34 34
2 2 5 9 2 3 3 4 4 3 5 3 3 6 3 7 8 7 7 6 5 5 4 4 6 12 14 18 22 21 23 23 25 24 23 22 11 9 18 14 19 28 32 34
1 2 4 6 4 2 3 4 4 3 3 5 3 6 3 3 4 7 8 8 6 5 4 4 6 6 12 18 21 23 24 22 25 26 28 26 22 22 9 6 11 9 22 23
3 3 7 6 6 2 3 5 6 6 3 3 7 8 4 6 7 8 7 8 7 6 4 2 3 4 9 13 17 21 23 23 22 25 26 29 28 27 20 13 4 6 10 10
4 4 4 10 17 14 15 13 11 11 10 6 5 6 7 9 12 10 9 8 7 6 5 4 2 2 6 11 15 18 19 21 21 21 26 25 26 28 27 25 24 22 23 20
3 4 3 6 8 9 7 14 17 17 15 18 21 27 21 18 8 6 6 6 7 6 6 6 2 1 3 7 10 13 16 18 19 21 20 20 23 26 27 28 32 30 31 28
6 1 3 6 6 8 7 8 14 6 5 17 13 13 7 7 7 6 8 8 8 8 7 7 5 3 3 3 6 9 10 13 17 20 21 21 21 23 22 25 27 27 25 25
4 4 2 4 6 4 5 4 6 14 6 15 10 12 9 7 6 8 8 8 9 8 8 7 6 6 4 2 3 6 8 10 13 17 19 19 19 20 22 25 25 24 24 26
5 3 2 2 2 9 4 3 5 6 7 17 20 19 14 8 4 7 7 9 9 9 8 11 13 11 7 4 1 2 4 8 11 13 15 16 16 19 21 22 21 22 24 25
6 3 2 1 2 5 4 2 3 3 5 6 12 14 7 5 2 5 5 3 8 9 12 14 17 12 9 8 5 4 3 4 7 8 10 11 13 15 16 17 17 18 20 23
3 3 7 5 4 9 9 5 2 1 6 2 6 8 8 6 7 4 4 4 5 10 14 17 17 17 15 13 11 8 6 4 4 6 7 8 10 12 13 14 15 16 20 21
9 8 5 4 4 9 7 4 7 6 3 3 3 5 6 9 6 7 8 7 7 8 12 19 18 17 15 17 15 14 13 10 8 6 6 8 9 9 11 13 14 14 14 17
3 7 5 11 8 4 10 8 7 4 4 4 3 7 7 8 7 8 8 9 9 9 15 21 21 19 18 19 18 17 16 15 14 12 10 7 8 9 9 10 11 11 10 11
5 7 5 1 8 19 10 13 11 6 9 10 11 10 7 9 9 8 8 7 8 11 14 22 21 17 20 22 21 19 16 17 16 15 14 13 12 10 9 8 8 9 9 9
5 6 5 13 17 14 18 20 19 16 11 11 10 12 14 10 10 10 8 8 9 12 17 21 19 19 23 25 25 21 19 20 20 18 17 16 15 14 12 9 8 7 6 5
8 17 10 15 19 11 18 19 10 9 7 9 9 9 10 11 14 11 12 9 9 10 18 18 22 22 25 28 29 26 23 24 22 20 20 19 18 15 14 12 10 5 3 4
Wind_Direction
217 74 268 267 265 234 271 283 284 274 279 258 253 246 264 269 274 283 83 17 351 328 315 318 306 313 307 300 296 301 295 301 262 245 239 235 234 238 238 236 231 231 222 210
1 272 275 286 311 290 289 279 281 289 315 322 313 281 263 255 253 255 143 37 347 329 320 314 315 309 304 303 303 303 294 293 277 237 233 231 228 235 238 238 231 232 226 214
210 257 309 338 335 345 320 302 301 250 326 302 287 284 264 261 219 138 93 84 355 299 298 299 304 307 309 304 304 302 300 296 292 244 237 231 228 236 234 234 230 231 227 222
269 276 359 326 313 321 311 278 348 326 336 258 62 295 291 288 126 115 64 21 315 293 286 287 301 307 312 308 305 301 303 300 284 255 226 218 219 227 227 232 231 231 233 229
261 333 346 311 294 2 252 323 272 273 294 330 291 131 269 129 147 147 118 333 293 277 281 299 306 308 312 316 316 309 305 304 286 260 233 224 222 227 230 226 231 234 239 236
239 257 213 222 287 248 274 314 326 273 271 270 233 156 274 193 182 192 275 269 268 282 297 311 319 326 329 330 325 319 312 309 303 267 241 228 225 224 226 224 224 233 239 240
317 259 201 168 327 357 75 284 326 306 259 236 308 161 254 224 181 176 228 258 285 300 312 315 337 331 330 332 330 327 317 305 301 275 249 238 235 231 227 228 224 221 232 236
45 333 179 186 209 253 292 237 149 251 275 281 246 236 260 179 164 181 194 223 299 327 310 312 303 311 329 328 329 326 324 316 306 282 254 245 239 234 229 229 230 229 227 234
2 278 312 214 136 127 330 282 109 265 238 313 243 276 343 163 184 180 177 157 314 319 316 316 322 329 338 334 337 333 330 329 322 290 266 244 238 234 231 236 235 237 240 240
289 305 258 180 51 264 191 308 31 261 335 285 287 269 234 209 207 201 195 273 289 304 321 324 323 337 346 346 346 354 353 354 358 5 304 249 238 240 238 238 240 240 242 244
274 133 291 81 187 196 350 306 239 130 178 205 285 269 230 203 194 199 211 246 264 278 302 315 323 339 348 5 358 359 360 355 4 6 355 301 240 232 236 238 241 244 244 245
237 192 269 234 240 117 167 237 165 134 279 249 165 276 280 175 185 185 221 242 264 269 298 326 340 352 352 1 8 357 360 4 7 13 32 35 18 284 237 249 251 244 244 244
100 258 320 342 355 333 210 203 157 103 38 233 154 260 248 201 200 228 226 236 238 259 290 325 354 354 354 2 6 11 14 7 18 23 34 25 33 48 107 236 234 249 229 233
113 238 201 212 218 149 217 201 180 147 142 247 235 278 274 291 263 269 260 242 227 226 248 267 338 338 349 355 7 14 18 22 18 32 36 33 30 38 57 70 105 60 214 252
148 232 225 256 263 262 254 243 208 199 196 195 265 270 265 269 267 255 254 233 221 229 249 237 266 332 346 354 3 14 19 26 31 27 37 40 44 50 49 55 68 70 88 108
182 270 8 282 267 238 253 237 228 231 227 245 262 278 281 272 270 256 244 217 229 225 244 230 231 9 346 350 359 10 15 26 34 43 40 42 50 54 54 57 64 67 68 75
168 163 28 271 328 312 307 229 202 197 198 218 230 239 253 262 229 237 241 232 232 227 222 213 209 213 267 329 357 14 25 26 37 41 44 46 51 56 60 68 68 72 75 73
151 132 174 274 335 334 254 167 181 205 224 214 244 243 232 233 247 247 231 218 228 223 212 199 191 194 213 283 349 11 37 47 46 45 46 47 53 58 64 68 70 73 76 77
147 140 260 263 247 289 298 201 174 174 279 219 226 250 254 256 265 280 232 221 215 202 205 200 195 192 194 200 202 50 53 50 54 50 52 55 60 63 64 64 67 73 78 81
147 123 146 295 213 260 229 264 226 182 293 218 196 229 242 149 285 260 244 237 214 205 193 179 177 180 187 196 190 172 135 90 75 66 65 69 73 75 71 73 76 81 87 86
141 197 220 220 254 275 253 175 148 242 250 285 196 208 170 182 208 233 210 249 211 199 191 189 185 186 198 192 186 178 181 185 140 113 96 88 83 87 91 88 89 92 98 96
171 167 199 187 219 273 158 94 175 216 271 261 252 251 225 220 234 223 225 226 212 198 193 192 189 200 205 198 192 185 190 189 177 158 135 117 105 96 95 95 96 100 105 105
248 204 186 194 215 254 196 210 226 223 225 263 247 262 240 251 251 236 230 220 216 212 207 208 205 210 211 209 210 202 203 189 180 173 168 154 133 120 111 112 106 95 94 100
237 193 233 235 229 250 241 252 256 241 239 244 237 237 232 236 241 249 243 236 220 218 216 214 208 208 217 216 216 222 206 194 189 184 179 173 164 153 147 131 132 137 136 132
202 150 211 253 263 282 268 263 271 269 252 257 252 239 239 237 246 237 243 233 226 223 216 212 206 213 218 221 220 221 210 199 195 193 186 181 177 172 163 160 161 161 160 170
207 234 231 256 260 252 264 267 252 248 251 243 241 265 238 223 240 233 246 236 230 223 216 207 212 215 221 220 218 219 214 207 202 195 192 188 182 176 170 163 148 153 156 160